Time,TemperatureF,DewpointF,PressureIn,WindDirection,WindDirectionDegrees,WindSpeedMPH,WindSpeedGustMPH,Humidity,HourlyPrecipIn,Conditions,Clouds,dailyrainin,SoftwareType,DateUTC
2013-04-02 00:02:00,36.5,22.0,29.82,SW,228,2.0,6.0,55,0.00,,,0.00,weatherlink.com 1.10,2013-04-02 04:02:00,
2013-04-02 00:17:00,36.3,23.0,29.83,WNW,294,9.0,9.0,58,0.00,,,0.00,weatherlink.com 1.10,2013-04-02 04:17:00,
2013-04-02 00:32:00,36.1,22.0,29.83,West,277,3.0,10.0,56,0.00,,,0.00,weatherlink.com 1.10,2013-04-02 04:32:00,
2013-04-02 00:47:00,35.8,23.0,29.84,WNW,297,4.0,9.0,59,0.00,,,0.00,weatherlink.com 1.10,2013-04-02 04:47:00,
2013-04-02 01:02:00,35.4,22.0,29.85,West,273,4.0,6.0,59,0.00,,,0.00,weatherlink.com 1.10,2013-04-02 05:02:00,
2013-04-02 01:17:00,35.1,23.0,29.85,West,274,2.0,6.0,61,0.00,,,0.00,weatherlink.com 1.10,2013-04-02 05:17:00,
2013-04-02 01:32:00,34.8,23.0,29.86,West,264,2.0,8.0,62,0.00,,,0.00,weatherlink.com 1.10,2013-04-02 05:32:00,
2013-04-02 01:48:00,34.5,23.0,29.86,WNW,297,4.0,8.0,62,0.00,,,0.00,weatherlink.com 1.10,2013-04-02 05:48:00,
2013-04-02 02:04:00,34.2,23.0,29.86,West,281,4.0,8.0,64,0.00,,,0.00,weatherlink.com 1.10,2013-04-02 06:04:00,
2013-04-02 02:18:00,33.9,23.0,29.86,West,267,2.0,7.0,64,0.00,,,0.00,weatherlink.com 1.10,2013-04-02 06:18:00,
2013-04-02 02:33:00,33.6,23.0,29.86,WNW,283,2.0,5.0,64,0.00,,,0.00,weatherlink.com 1.10,2013-04-02 06:33:00,
2013-04-02 02:48:00,33.5,23.0,29.86,West,274,2.0,5.0,66,0.00,,,0.00,weatherlink.com 1.10,2013-04-02 06:48:00,
2013-04-02 03:03:00,33.2,23.0,29.86,NW,322,0.0,6.0,66,0.00,,,0.00,weatherlink.com 1.10,2013-04-02 07:03:00,
2013-04-02 03:18:00,32.8,23.0,29.87,NW,308,3.0,3.0,66,0.00,,,0.00,weatherlink.com 1.10,2013-04-02 07:18:00,
2013-04-02 03:33:00,-999.0,-99.9,29.87,North,-999,-999.0,-999.0,-999,0.00,,,0.00,weatherlink.com 1.10,2013-04-02 07:33:00,
2013-04-02 03:48:00,-999.0,-99.9,29.87,North,-999,-999.0,-999.0,-999,0.00,,,0.00,weatherlink.com 1.10,2013-04-02 07:48:00,
2013-04-02 04:03:00,-999.0,-99.9,29.86,North,-999,-999.0,-999.0,-999,0.00,,,0.00,weatherlink.com 1.10,2013-04-02 08:03:00,
2013-04-02 04:18:00,-999.0,-99.9,29.87,North,-999,-999.0,-999.0,-999,0.00,,,0.00,weatherlink.com 1.10,2013-04-02 08:18:00,
2013-04-02 04:33:00,-999.0,-99.9,29.87,North,-999,-999.0,-999.0,-999,0.00,,,0.00,weatherlink.com 1.10,2013-04-02 08:33:00,
2013-04-02 04:48:00,-999.0,-99.9,29.87,North,-999,-999.0,-999.0,-999,0.00,,,0.00,weatherlink.com 1.10,2013-04-02 08:48:00,
2013-04-02 05:03:00,-999.0,-99.9,29.87,North,-999,-999.0,-999.0,-999,0.00,,,0.00,weatherlink.com 1.10,2013-04-02 09:03:00,
2013-04-02 05:18:00,-999.0,-99.9,29.88,North,-999,-999.0,-999.0,-999,0.00,,,0.00,weatherlink.com 1.10,2013-04-02 09:18:00,
2013-04-02 05:33:00,-999.0,-99.9,29.88,North,-999,-999.0,-999.0,-999,0.00,,,0.00,weatherlink.com 1.10,2013-04-02 09:33:00,
2013-04-02 05:48:00,-999.0,-99.9,29.88,North,-999,-999.0,-999.0,-999,0.00,,,0.00,weatherlink.com 1.10,2013-04-02 09:48:00,
2013-04-02 06:03:00,-999.0,-99.9,29.88,North,-999,-999.0,-999.0,-999,0.00,,,0.00,weatherlink.com 1.10,2013-04-02 10:03:00,
2013-04-02 06:18:00,-999.0,-99.9,29.89,North,-999,-999.0,-999.0,-999,0.00,,,0.00,weatherlink.com 1.10,2013-04-02 10:18:00,
2013-04-02 06:33:00,-999.0,-99.9,29.89,North,-999,-999.0,-999.0,-999,0.00,,,0.00,weatherlink.com 1.10,2013-04-02 10:33:00,
2013-04-02 06:49:00,-999.0,-99.9,29.90,North,-999,-999.0,-999.0,-999,0.00,,,0.00,weatherlink.com 1.10,2013-04-02 10:49:00,
2013-04-02 07:04:00,-999.0,-99.9,29.91,North,-999,-999.0,-999.0,-999,0.00,,,0.00,weatherlink.com 1.10,2013-04-02 11:04:00,
2013-04-02 07:19:00,34.4,21.0,29.91,WNW,297,7.0,12.0,58,0.00,,,0.00,weatherlink.com 1.10,2013-04-02 11:19:00,
2013-04-02 07:34:00,34.8,20.0,29.91,NNW,346,7.0,16.0,55,0.00,,,0.00,weatherlink.com 1.10,2013-04-02 11:34:00,
2013-04-02 07:49:00,34.9,19.0,29.91,NNW,333,7.0,14.0,52,0.00,,,0.00,weatherlink.com 1.10,2013-04-02 11:49:00,
2013-04-02 08:04:00,35.1,20.0,29.92,West,277,3.0,12.0,54,0.00,,,0.00,weatherlink.com 1.10,2013-04-02 12:04:00,
2013-04-02 08:19:00,35.4,22.0,29.92,West,278,7.0,18.0,58,0.00,,,0.00,weatherlink.com 1.10,2013-04-02 12:19:00,
2013-04-02 08:34:00,35.4,21.0,29.92,NW,317,12.0,15.0,56,0.00,,,0.00,weatherlink.com 1.10,2013-04-02 12:34:00,
2013-04-02 08:49:00,35.4,20.0,29.92,WNW,302,10.0,15.0,54,0.00,,,0.00,weatherlink.com 1.10,2013-04-02 12:49:00,
2013-04-02 09:05:00,35.9,21.0,29.92,WNW,301,5.0,13.0,56,0.00,,,0.00,weatherlink.com 1.10,2013-04-02 13:05:00,
2013-04-02 09:19:00,36.0,20.0,29.92,WNW,294,9.0,12.0,53,0.00,,,0.00,weatherlink.com 1.10,2013-04-02 13:19:00,
2013-04-02 09:34:00,36.0,21.0,29.92,West,281,3.0,14.0,54,0.00,,,0.00,weatherlink.com 1.10,2013-04-02 13:34:00,
2013-04-02 09:49:00,36.5,20.0,29.92,NW,314,4.0,14.0,52,0.00,,,0.00,weatherlink.com 1.10,2013-04-02 13:49:00,
2013-04-02 10:04:00,37.4,21.0,29.92,NW,308,7.0,13.0,51,0.00,,,0.00,weatherlink.com 1.10,2013-04-02 14:04:00,
2013-04-02 10:19:00,37.2,19.0,29.92,NW,308,6.0,16.0,49,0.00,,,0.00,weatherlink.com 1.10,2013-04-02 14:19:00,
2013-04-02 10:34:00,38.3,21.0,29.92,NW,324,5.0,11.0,51,0.00,,,0.00,weatherlink.com 1.10,2013-04-02 14:34:00,
2013-04-02 10:49:00,38.4,20.0,29.92,West,274,12.0,12.0,47,0.00,,,0.00,weatherlink.com 1.10,2013-04-02 14:49:00,
2013-04-02 11:04:00,38.9,19.0,29.91,West,278,6.0,15.0,45,0.00,,,0.00,weatherlink.com 1.10,2013-04-02 15:04:00,
2013-04-02 11:19:00,39.9,21.0,29.91,WNW,295,3.0,11.0,48,0.00,,,0.00,weatherlink.com 1.10,2013-04-02 15:19:00,
2013-04-02 11:34:00,39.7,20.0,29.91,WNW,288,9.0,14.0,46,0.00,,,0.00,weatherlink.com 1.10,2013-04-02 15:34:00,
2013-04-02 11:49:00,40.2,19.0,29.90,NW,314,5.0,16.0,42,0.00,,,0.00,weatherlink.com 1.10,2013-04-02 15:49:00,
2013-04-02 12:04:00,40.9,20.0,29.89,NW,319,4.0,15.0,44,0.00,,,0.00,weatherlink.com 1.10,2013-04-02 16:04:00,
2013-04-02 12:19:00,40.9,19.0,29.89,NW,304,8.0,16.0,41,0.00,,,0.00,weatherlink.com 1.10,2013-04-02 16:19:00,
2013-04-02 12:34:00,41.8,23.0,29.89,WNW,301,4.0,17.0,47,0.00,,,0.00,weatherlink.com 1.10,2013-04-02 16:34:00,
2013-04-02 12:49:00,41.9,21.0,29.88,WNW,295,6.0,16.0,44,0.00,,,0.00,weatherlink.com 1.10,2013-04-02 16:49:00,
2013-04-02 13:19:00,41.6,22.0,29.88,West,277,6.0,21.0,45,0.00,,,0.00,weatherlink.com 1.10,2013-04-02 17:19:00,
2013-04-02 13:34:00,42.7,21.0,29.87,West,277,7.0,20.0,42,0.00,,,0.00,weatherlink.com 1.10,2013-04-02 17:34:00,
2013-04-02 13:49:00,42.4,22.0,29.87,West,280,8.0,21.0,44,0.00,,,0.00,weatherlink.com 1.10,2013-04-02 17:49:00,
2013-04-02 14:04:00,41.9,20.0,29.87,WNW,298,6.0,17.0,42,0.00,,,0.00,weatherlink.com 1.10,2013-04-02 18:04:00,
2013-04-02 14:19:00,43.0,22.0,29.86,WNW,300,5.0,19.0,43,0.00,,,0.00,weatherlink.com 1.10,2013-04-02 18:19:00,
2013-04-02 14:34:00,42.5,21.0,29.86,West,276,8.0,19.0,42,0.00,,,0.00,weatherlink.com 1.10,2013-04-02 18:34:00,
2013-04-02 14:49:00,43.2,22.0,29.86,WNW,295,4.0,17.0,44,0.00,,,0.00,weatherlink.com 1.10,2013-04-02 18:49:00,
2013-04-02 15:04:00,42.6,21.0,29.86,WNW,302,8.0,14.0,42,0.00,,,0.00,weatherlink.com 1.10,2013-04-02 19:04:00,
2013-04-02 15:19:00,43.7,21.0,29.86,NNW,338,8.0,15.0,40,0.00,,,0.00,weatherlink.com 1.10,2013-04-02 19:19:00,
2013-04-02 15:34:00,43.1,22.0,29.86,WNW,302,15.0,18.0,43,0.00,,,0.00,weatherlink.com 1.10,2013-04-02 19:34:00,
2013-04-02 15:49:00,42.8,19.0,29.86,NW,317,6.0,15.0,38,0.00,,,0.00,weatherlink.com 1.10,2013-04-02 19:49:00,
2013-04-02 16:04:00,43.5,19.0,29.85,WNW,283,6.0,17.0,37,0.00,,,0.00,weatherlink.com 1.10,2013-04-02 20:04:00,
2013-04-02 16:19:00,41.9,16.0,29.86,WNW,288,9.0,18.0,35,0.00,,,0.00,weatherlink.com 1.10,2013-04-02 20:19:00,
2013-04-02 16:34:00,42.8,15.0,29.86,West,274,8.0,18.0,32,0.00,,,0.00,weatherlink.com 1.10,2013-04-02 20:34:00,
2013-04-02 16:49:00,43.3,20.0,29.86,NW,308,6.0,14.0,40,0.00,,,0.00,weatherlink.com 1.10,2013-04-02 20:49:00,
2013-04-02 17:04:00,43.0,16.0,29.87,NW,309,7.0,16.0,33,0.00,,,0.00,weatherlink.com 1.10,2013-04-02 21:04:00,
2013-04-02 17:19:00,42.7,16.0,29.87,WNW,289,4.0,16.0,34,0.00,,,0.00,weatherlink.com 1.10,2013-04-02 21:19:00,
2013-04-02 17:35:00,42.9,17.0,29.88,NW,307,6.0,13.0,35,0.00,,,0.00,weatherlink.com 1.10,2013-04-02 21:35:00,
2013-04-02 17:50:00,42.6,17.0,29.88,West,281,8.0,13.0,35,0.00,,,0.00,weatherlink.com 1.10,2013-04-02 21:50:00,
2013-04-02 18:05:00,41.3,17.0,29.89,NNW,330,6.0,17.0,38,0.00,,,0.00,weatherlink.com 1.10,2013-04-02 22:05:00,
2013-04-02 18:20:00,41.3,17.0,29.90,NW,321,8.0,13.0,37,0.00,,,0.00,weatherlink.com 1.10,2013-04-02 22:20:00,
2013-04-02 18:35:00,41.2,18.0,29.90,WNW,285,5.0,15.0,39,0.00,,,0.00,weatherlink.com 1.10,2013-04-02 22:35:00,
2013-04-02 18:50:00,39.9,16.0,29.91,WNW,297,7.0,15.0,38,0.00,,,0.00,weatherlink.com 1.10,2013-04-02 22:50:00,
2013-04-02 19:05:00,39.4,18.0,29.92,NNE,12,3.0,13.0,42,0.00,,,0.00,weatherlink.com 1.10,2013-04-02 23:05:00,
2013-04-02 19:20:00,39.1,17.0,29.92,NW,308,6.0,14.0,41,0.00,,,0.00,weatherlink.com 1.10,2013-04-02 23:20:00,
2013-04-02 19:35:00,39.0,16.0,29.93,WNW,301,6.0,14.0,39,0.00,,,0.00,weatherlink.com 1.10,2013-04-02 23:35:00,
2013-04-02 19:50:00,38.9,16.0,29.93,West,270,8.0,11.0,39,0.00,,,0.00,weatherlink.com 1.10,2013-04-02 23:50:00,
2013-04-02 20:05:00,38.7,17.0,29.94,WNW,297,4.0,10.0,42,0.00,,,0.00,weatherlink.com 1.10,2013-04-03 00:05:00,
2013-04-02 20:20:00,38.6,15.0,29.95,WNW,283,6.0,10.0,39,0.00,,,0.00,weatherlink.com 1.10,2013-04-03 00:20:00,
2013-04-02 20:50:00,38.5,18.0,29.97,WNW,288,3.0,11.0,43,0.00,,,0.00,weatherlink.com 1.10,2013-04-03 00:50:00,
2013-04-02 21:05:00,38.4,16.0,29.97,WNW,291,6.0,13.0,41,0.00,,,0.00,weatherlink.com 1.10,2013-04-03 01:05:00,
2013-04-02 21:20:00,38.2,17.0,29.97,WNW,295,4.0,11.0,43,0.00,,,0.00,weatherlink.com 1.10,2013-04-03 01:20:00,
2013-04-02 21:35:00,38.1,19.0,29.98,NW,309,4.0,10.0,46,0.00,,,0.00,weatherlink.com 1.10,2013-04-03 01:35:00,
2013-04-02 21:50:00,37.8,18.0,29.98,NW,312,6.0,11.0,44,0.00,,,0.00,weatherlink.com 1.10,2013-04-03 01:50:00,
2013-04-02 22:05:00,37.7,17.0,29.98,NW,304,4.0,16.0,43,0.00,,,0.00,weatherlink.com 1.10,2013-04-03 02:05:00,
2013-04-02 22:20:00,37.6,17.0,29.98,NW,305,4.0,13.0,43,0.00,,,0.00,weatherlink.com 1.10,2013-04-03 02:20:00,
2013-04-02 22:35:00,37.5,17.0,29.98,WNW,295,6.0,10.0,44,0.00,,,0.00,weatherlink.com 1.10,2013-04-03 02:35:00,
2013-04-02 22:50:00,37.5,18.0,29.98,WNW,293,6.0,12.0,45,0.00,,,0.00,weatherlink.com 1.10,2013-04-03 02:50:00,
2013-04-02 23:05:00,37.2,18.0,29.98,WNW,295,3.0,9.0,47,0.00,,,0.00,weatherlink.com 1.10,2013-04-03 03:05:00,
2013-04-02 23:20:00,37.1,18.0,29.98,ESE,110,3.0,8.0,46,0.00,,,0.00,weatherlink.com 1.10,2013-04-03 03:20:00,
2013-04-02 23:35:00,36.9,17.0,29.99,WNW,285,4.0,8.0,45,0.00,,,0.00,weatherlink.com 1.10,2013-04-03 03:35:00,
2013-04-02 23:50:00,37.0,18.0,29.99,WNW,291,3.0,7.0,47,0.00,,,0.00,weatherlink.com 1.10,2013-04-03 03:50:00,